Time,TemperatureF,DewpointF,PressureIn,WindDirection,WindDirectionDegrees,WindSpeedMPH,WindSpeedGustMPH,Humidity,HourlyPrecipIn,Conditions,Clouds,dailyrainin,SoftwareType,DateUTC
2013-04-12 00:22:00,55.0,55.0,-100.00,ENE,78,-999.0,10.0,100,-99.99,,,-99.99,,2013-04-12 07:22:00,
2013-04-12 00:32:00,55.0,55.0,-100.00,ENE,78,-999.0,10.0,100,-99.99,,,-99.99,,2013-04-12 07:32:00,
2013-04-12 00:42:00,55.0,55.0,-100.00,ENE,78,-999.0,10.0,100,-99.99,,,-99.99,,2013-04-12 07:42:00,
2013-04-12 01:22:00,54.0,54.0,-100.00,NW,309,-999.0,10.0,100,-99.99,,,-99.99,,2013-04-12 08:22:00,
2013-04-12 01:32:00,54.0,54.0,-100.00,NW,309,-999.0,10.0,100,-99.99,,,-99.99,,2013-04-12 08:32:00,
2013-04-12 01:42:00,54.0,54.0,-100.00,NW,309,-999.0,10.0,100,-99.99,,,-99.99,,2013-04-12 08:42:00,
2013-04-12 01:52:00,54.0,54.0,-100.00,West,280,-999.0,-999.0,100,-99.99,,,-99.99,,2013-04-12 08:52:00,
2013-04-12 02:02:00,54.0,54.0,-100.00,West,280,-999.0,-999.0,100,-99.99,,,-99.99,,2013-04-12 09:02:00,
2013-04-12 02:12:00,54.0,54.0,-100.00,West,280,-999.0,-999.0,100,-99.99,,,-99.99,,2013-04-12 09:12:00,
2013-04-12 02:22:00,54.0,54.0,-100.00,SW,215,-999.0,10.0,100,-99.99,,,-99.99,,2013-04-12 09:22:00,
2013-04-12 02:32:00,54.0,54.0,-100.00,SW,215,-999.0,10.0,100,-99.99,,,-99.99,,2013-04-12 09:32:00,
2013-04-12 02:43:00,54.0,54.0,-100.00,SW,215,-999.0,10.0,100,-99.99,,,-99.99,,2013-04-12 09:43:00,
2013-04-12 02:52:00,53.0,53.0,0.00,North,354,-999.0,-999.0,100,-99.99,,,-99.99,,2013-04-12 09:52:00,
2013-04-12 03:02:00,53.0,53.0,0.00,North,354,-999.0,-999.0,100,-99.99,,,-99.99,,2013-04-12 10:02:00,
2013-04-12 03:12:00,53.0,53.0,0.00,North,354,-999.0,-999.0,100,-99.99,,,-99.99,,2013-04-12 10:12:00,
2013-04-12 03:22:00,54.0,54.0,-100.00,NNW,330,-999.0,10.0,100,-99.99,,,-99.99,,2013-04-12 10:22:00,
2013-04-12 03:33:00,54.0,54.0,-100.00,NNW,330,-999.0,10.0,100,-99.99,,,-99.99,,2013-04-12 10:33:00,
2013-04-12 03:42:00,54.0,54.0,-100.00,NNW,330,-999.0,10.0,100,-99.99,,,-99.99,,2013-04-12 10:42:00,
2013-04-12 03:52:00,54.0,54.0,-100.00,NNW,334,-999.0,0.0,100,-99.99,,,0.00,,2013-04-12 10:52:00,
2013-04-12 04:02:00,54.0,54.0,-100.00,NNW,334,-999.0,0.0,100,-99.99,,,0.00,,2013-04-12 11:02:00,
2013-04-12 04:12:00,54.0,54.0,-100.00,NNW,334,-999.0,0.0,100,-99.99,,,0.00,,2013-04-12 11:12:00,
2013-04-12 04:21:00,54.0,54.0,-100.00,NNW,342,-999.0,0.0,100,-99.99,,,-99.99,,2013-04-12 11:21:00,
2013-04-12 04:32:00,54.0,54.0,-100.00,NNW,342,-999.0,0.0,100,-99.99,,,-99.99,,2013-04-12 11:32:00,
2013-04-12 04:42:00,54.0,54.0,-100.00,NNW,342,-999.0,0.0,100,-99.99,,,-99.99,,2013-04-12 11:42:00,
2013-04-12 04:52:00,55.0,55.0,-100.00,NNW,336,-999.0,-999.0,100,-99.99,,,0.00,,2013-04-12 11:52:00,
2013-04-12 05:02:00,55.0,55.0,-100.00,NNW,336,-999.0,-999.0,100,-99.99,,,0.00,,2013-04-12 12:02:00,
2013-04-12 05:12:00,55.0,55.0,-100.00,NNW,336,-999.0,-999.0,100,-99.99,,,0.00,,2013-04-12 12:12:00,
2013-04-12 05:22:00,55.0,55.0,-100.00,West,280,-999.0,0.0,100,-99.99,,,-99.99,,2013-04-12 12:22:00,
2013-04-12 05:32:00,55.0,55.0,-100.00,West,280,-999.0,0.0,100,-99.99,,,-99.99,,2013-04-12 12:32:00,
2013-04-12 05:42:00,55.0,55.0,-100.00,West,280,-999.0,0.0,100,-99.99,,,-99.99,,2013-04-12 12:42:00,
2013-04-12 05:52:00,55.0,55.0,0.00,WSW,243,-999.0,0.0,100,-99.99,,,-99.99,,2013-04-12 12:52:00,
2013-04-12 06:03:00,55.0,55.0,0.00,WSW,243,-999.0,0.0,100,-99.99,,,-99.99,,2013-04-12 13:03:00,
2013-04-12 06:12:00,55.0,55.0,0.00,WSW,243,-999.0,0.0,100,-99.99,,,-99.99,,2013-04-12 13:12:00,
2013-04-12 06:21:00,56.0,56.0,-100.00,NNW,341,-999.0,0.0,100,-99.99,,,-99.99,,2013-04-12 13:21:00,
2013-04-12 06:32:00,56.0,56.0,-100.00,NNW,341,-999.0,0.0,100,-99.99,,,-99.99,,2013-04-12 13:32:00,
2013-04-12 06:52:00,57.0,57.0,-100.00,NW,324,-999.0,0.0,100,-99.99,,,0.00,,2013-04-12 13:52:00,
2013-04-12 07:22:00,56.0,56.0,-100.00,SW,226,-999.0,0.0,100,-99.99,,,-99.99,,2013-04-12 14:22:00,
2013-04-12 07:42:00,56.0,56.0,-100.00,SW,226,-999.0,0.0,100,-99.99,,,-99.99,,2013-04-12 14:42:00,
2013-04-12 08:12:00,57.0,57.0,-100.00,South,181,-999.0,-999.0,100,-99.99,,,0.00,,2013-04-12 15:12:00,
2013-04-12 08:22:00,57.0,57.0,-100.00,ENE,72,-999.0,-999.0,100,-99.99,,,-99.99,,2013-04-12 15:22:00,
2013-04-12 08:33:00,57.0,57.0,-100.00,ENE,72,-999.0,-999.0,100,-99.99,,,-99.99,,2013-04-12 15:33:00,
2013-04-12 08:43:00,57.0,57.0,-100.00,ENE,72,-999.0,-999.0,100,-99.99,,,-99.99,,2013-04-12 15:43:00,
2013-04-12 08:52:00,57.0,56.0,0.00,ENE,77,-999.0,0.0,98,-99.99,,,-99.99,,2013-04-12 15:52:00,
2013-04-12 09:03:00,57.0,56.0,0.00,ENE,77,-999.0,0.0,98,-99.99,,,-99.99,,2013-04-12 16:03:00,
2013-04-12 09:13:00,57.0,56.0,0.00,ENE,77,-999.0,0.0,98,-99.99,,,-99.99,,2013-04-12 16:13:00,
2013-04-12 09:22:00,58.0,57.0,-100.00,South,191,-999.0,0.0,96,-99.99,,,-99.99,,2013-04-12 16:22:00,
2013-04-12 09:33:00,58.0,57.0,-100.00,South,191,-999.0,0.0,96,-99.99,,,-99.99,,2013-04-12 16:33:00,
2013-04-12 09:42:00,58.0,57.0,-100.00,South,191,-999.0,0.0,96,-99.99,,,-99.99,,2013-04-12 16:42:00,
2013-04-12 09:52:00,59.0,57.0,-100.00,WSW,238,-999.0,-999.0,93,-99.99,,,-99.99,,2013-04-12 16:52:00,
2013-04-12 10:03:00,59.0,57.0,-100.00,WSW,238,-999.0,-999.0,93,-99.99,,,-99.99,,2013-04-12 17:03:00,
2013-04-12 10:12:00,59.0,57.0,-100.00,WSW,238,-999.0,-999.0,93,-99.99,,,-99.99,,2013-04-12 17:12:00,
2013-04-12 10:22:00,59.0,58.0,-100.00,WSW,242,-999.0,0.0,95,-99.99,,,-99.99,,2013-04-12 17:22:00,
2013-04-12 10:33:00,59.0,58.0,-100.00,WSW,242,-999.0,0.0,95,-99.99,,,-99.99,,2013-04-12 17:33:00,
2013-04-12 10:44:00,59.0,58.0,-100.00,WSW,242,-999.0,0.0,95,-99.99,,,-99.99,,2013-04-12 17:44:00,
2013-04-12 10:55:00,62.0,58.0,-100.00,SSW,211,-999.0,8.0,86,-99.99,,,-99.99,,2013-04-12 17:55:00,
2013-04-12 11:08:00,62.0,58.0,-100.00,SSW,211,-999.0,8.0,86,-99.99,,,-99.99,,2013-04-12 18:08:00,
2013-04-12 11:52:00,62.0,58.0,-100.00,West,276,-999.0,11.0,88,-99.99,,,-99.99,,2013-04-12 18:52:00,
2013-04-12 12:26:00,62.0,58.0,-100.00,West,276,-999.0,11.0,88,-99.99,,,-99.99,,2013-04-12 19:26:00,
2013-04-12 12:32:00,62.0,58.0,-100.00,West,276,-999.0,11.0,88,-99.99,,,-99.99,,2013-04-12 19:32:00,
2013-04-12 12:42:00,62.0,58.0,-100.00,West,276,-999.0,11.0,88,-99.99,,,-99.99,,2013-04-12 19:42:00,
2013-04-12 13:52:00,63.0,58.0,-100.00,SSW,205,-999.0,11.0,84,-99.99,,,0.00,,2013-04-12 20:52:00,
2013-04-12 14:02:00,63.0,58.0,-100.00,SSW,205,-999.0,11.0,84,-99.99,,,0.00,,2013-04-12 21:02:00,
2013-04-12 14:11:00,63.0,58.0,-100.00,SSW,205,-999.0,11.0,84,-99.99,,,0.00,,2013-04-12 21:11:00,
2013-04-12 14:21:00,63.0,58.0,-100.00,SSW,205,-999.0,11.0,84,-99.99,,,0.00,,2013-04-12 21:21:00,
2013-04-12 14:53:00,63.0,58.0,0.00,SW,224,-999.0,11.0,84,-99.99,,,-99.99,,2013-04-12 21:53:00,
2013-04-12 15:02:00,63.0,58.0,0.00,SW,224,-999.0,11.0,84,-99.99,,,-99.99,,2013-04-12 22:02:00,
2013-04-12 15:12:00,63.0,58.0,0.00,SW,224,-999.0,11.0,84,-99.99,,,-99.99,,2013-04-12 22:12:00,
2013-04-12 15:22:00,62.0,58.0,-100.00,South,187,-999.0,-999.0,86,-99.99,,,-99.99,,2013-04-12 22:22:00,
2013-04-12 15:32:00,62.0,58.0,-100.00,South,187,-999.0,-999.0,86,-99.99,,,-99.99,,2013-04-12 22:32:00,
2013-04-12 15:42:00,62.0,58.0,-100.00,South,187,-999.0,-999.0,86,-99.99,,,-99.99,,2013-04-12 22:42:00,
2013-04-12 15:52:00,62.0,58.0,-100.00,West,261,-999.0,-999.0,88,-99.99,,,0.00,,2013-04-12 22:52:00,
2013-04-12 16:03:00,62.0,58.0,-100.00,West,261,-999.0,-999.0,88,-99.99,,,0.00,,2013-04-12 23:03:00,
2013-04-12 16:12:00,62.0,58.0,-100.00,SW,219,-999.0,11.0,88,-99.99,,,-99.99,,2013-04-12 23:12:00,
2013-04-12 16:22:00,62.0,58.0,-100.00,SW,219,-999.0,11.0,88,-99.99,,,-99.99,,2013-04-12 23:22:00,
2013-04-12 16:32:00,62.0,58.0,-100.00,SW,219,-999.0,11.0,88,-99.99,,,-99.99,,2013-04-12 23:32:00,
2013-04-12 16:42:00,62.0,58.0,-100.00,SW,219,-999.0,11.0,88,-99.99,,,-99.99,,2013-04-12 23:42:00,
2013-04-12 16:51:00,61.0,58.0,-100.00,West,267,-999.0,11.0,90,-99.99,,,0.00,,2013-04-12 23:51:00,
2013-04-12 17:02:00,61.0,58.0,-100.00,West,267,-999.0,11.0,90,-99.99,,,0.00,,2013-04-13 00:02:00,
2013-04-12 17:12:00,61.0,58.0,-100.00,West,267,-999.0,11.0,90,-99.99,,,0.00,,2013-04-13 00:12:00,
2013-04-12 17:22:00,62.0,58.0,-100.00,SW,236,-999.0,11.0,86,-99.99,,,-99.99,,2013-04-13 00:22:00,
2013-04-12 17:32:00,62.0,58.0,-100.00,SW,236,-999.0,11.0,86,-99.99,,,-99.99,,2013-04-13 00:32:00,
2013-04-12 17:42:00,62.0,58.0,-100.00,SW,236,-999.0,11.0,86,-99.99,,,-99.99,,2013-04-13 00:42:00,
2013-04-12 17:52:00,61.0,58.0,0.00,WSW,247,-999.0,11.0,89,-99.99,,,0.00,,2013-04-13 00:52:00,
2013-04-12 18:02:00,61.0,58.0,0.00,WSW,247,-999.0,11.0,89,-99.99,,,0.00,,2013-04-13 01:02:00,
2013-04-12 18:12:00,61.0,58.0,0.00,WSW,247,-999.0,11.0,89,-99.99,,,0.00,,2013-04-13 01:12:00,
2013-04-12 18:22:00,61.0,58.0,-100.00,ESE,111,-999.0,11.0,90,-99.99,,,-99.99,,2013-04-13 01:22:00,
2013-04-12 18:32:00,61.0,58.0,-100.00,ESE,111,-999.0,11.0,90,-99.99,,,-99.99,,2013-04-13 01:32:00,
2013-04-12 18:42:00,61.0,58.0,-100.00,ESE,111,-999.0,11.0,90,-99.99,,,-99.99,,2013-04-13 01:42:00,
2013-04-12 18:52:00,61.0,58.0,-100.00,ESE,111,-999.0,11.0,90,-99.99,,,-99.99,,2013-04-13 01:52:00,
2013-04-12 20:22:00,55.0,55.0,-100.00,SW,219,-999.0,11.0,100,-99.99,,,-99.99,,2013-04-13 03:22:00,
2013-04-12 20:33:00,55.0,55.0,-100.00,SW,219,-999.0,11.0,100,-99.99,,,-99.99,,2013-04-13 03:33:00,
2013-04-12 20:42:00,55.0,55.0,-100.00,SW,219,-999.0,11.0,100,-99.99,,,-99.99,,2013-04-13 03:42:00,
2013-04-12 20:52:00,55.0,55.0,0.00,West,269,-999.0,11.0,100,-99.99,,,0.00,,2013-04-13 03:52:00,
2013-04-12 21:02:00,55.0,55.0,0.00,West,269,-999.0,11.0,100,-99.99,,,0.00,,2013-04-13 04:02:00,
2013-04-12 21:12:00,55.0,55.0,0.00,West,269,-999.0,11.0,100,-99.99,,,0.00,,2013-04-13 04:12:00,
2013-04-12 21:22:00,55.0,55.0,0.00,West,269,-999.0,11.0,100,-99.99,,,0.00,,2013-04-13 04:22:00,
2013-04-12 21:53:00,54.0,54.0,-100.00,WNW,289,-999.0,11.0,100,-99.99,,,-99.99,,2013-04-13 04:53:00,
2013-04-12 22:02:00,54.0,54.0,-100.00,WNW,289,-999.0,11.0,100,-99.99,,,-99.99,,2013-04-13 05:02:00,
2013-04-12 22:12:00,54.0,54.0,-100.00,WNW,289,-999.0,11.0,100,-99.99,,,-99.99,,2013-04-13 05:12:00,
2013-04-12 22:22:00,54.0,54.0,-100.00,WNW,289,-999.0,11.0,100,-99.99,,,-99.99,,2013-04-13 05:22:00,
2013-04-12 22:52:00,54.0,54.0,-100.00,ENE,73,-999.0,-999.0,100,-99.99,,,0.00,,2013-04-13 05:52:00,
2013-04-12 23:02:00,54.0,54.0,-100.00,ENE,73,-999.0,-999.0,100,-99.99,,,0.00,,2013-04-13 06:02:00,
2013-04-12 23:12:00,54.0,54.0,-100.00,ENE,73,-999.0,-999.0,100,-99.99,,,0.00,,2013-04-13 06:12:00,
2013-04-12 23:22:00,54.0,54.0,-100.00,East,81,-999.0,11.0,100,-99.99,,,-99.99,,2013-04-13 06:22:00,
2013-04-12 23:34:00,54.0,54.0,-100.00,East,81,-999.0,11.0,100,-99.99,,,-99.99,,2013-04-13 06:34:00,
2013-04-12 23:44:00,54.0,54.0,-100.00,East,81,-999.0,11.0,100,-99.99,,,-99.99,,2013-04-13 06:44:00,
2013-04-12 23:53:00,54.0,54.0,0.00,ENE,67,-999.0,11.0,100,-99.99,,,-99.99,,2013-04-13 06:53:00,